Auburn, AL

12:59 PM CDT on June 26, 2017 (GMT -0500)
Auburn-opelika-pitts

Weather History for KAUO - November, 2013

Change the Weather History Date:

Monday, November 25, 2013

  Actual Average Record
Temperature  
Mean Temperature 39 °F -  
Max Temperature 48 °F - 80 °F (1958)
Min Temperature 30 °F - 16 °F (1970)
Degree Days  
Heating Degree Days 26    
Month to date heating degree days 280  
Since 1 July heating degree days 316  
Moisture  
Dew Point 22 °F    
Average Humidity 46    
Maximum Humidity 76    
Minimum Humidity 30    
Precipitation  
Precipitation 0.00 in - 2.31 in (1999)
Month to date precipitation 0.80  
Year to date precipitation 40.26  
Sea Level Pressure  
Sea Level Pressure 30.28 in    
Wind  
Wind Speed 12 mph (East)    
Max Wind Speed 16 mph    
Max Gust Speed 22 mph    
Visibility 10 miles    
Events      
T = Trace of Precipitation, MM = Missing Value Source: NWS Daily Summary

Daily Weather History Graph

Daily Weather History Graph

Search for Another Location

Airport or City:

Trip Planner

Search our weather history database for the weather conditions in past years. The results will help you decide how hot, cold, wet, or windy it might be!

Date:

Astronomy

Nov. 25, 2013 Rise Set
Actual Time 6:20 AM CST 4:36 PM CST
Civil Twilight 5:54 AM CST 5:03 PM CST
Nautical Twilight 5:24 AM CST 5:33 PM CST
Astronomical Twilight 4:54 AM CST 6:02 PM CST
Moon 11:45 PM CST (11/25) 11:50 AM CST (11/25)
Length of Visible Light 11h 09m
Length of Day
10h 15m
Waning Gibbous, 51% of the Moon is Illuminated
Nov 25
Waning Gibbous
Nov 25
Last Quarter
Dec 2
New
Dec 9
First Quarter
Dec 17
Full

Hourly Weather History & Observations

Time (CST) Temp. Windchill Dew Point Humidity Pressure Visibility Wind Dir Wind Speed Gust Speed Precip Events Conditions
12:15 AM 33.8 °F 25.3 °F 17.6 °F 52% 30.39 in 10.0 mi East 11.5 mph - N/A   Clear
12:35 AM 33.8 °F 25.8 °F 15.8 °F 48% 30.38 in 10.0 mi East 10.4 mph - N/A   Clear
12:55 AM 33.8 °F 27.0 °F 15.8 °F 48% 30.38 in 10.0 mi East 8.1 mph - N/A   Clear
1:15 AM 33.8 °F 25.8 °F 15.8 °F 48% 30.39 in 10.0 mi East 10.4 mph - N/A   Clear
1:35 AM 35.6 °F 27.5 °F 15.8 °F 44% 30.38 in 10.0 mi East 11.5 mph - N/A   Clear
1:55 AM 33.8 °F 25.8 °F 14.0 °F 44% 30.38 in 10.0 mi East 10.4 mph - N/A   Clear
2:15 AM 33.8 °F 25.3 °F 14.0 °F 44% 30.38 in 10.0 mi East 11.5 mph 17.3 mph N/A   Clear
2:35 AM 33.8 °F 25.3 °F 14.0 °F 44% 30.38 in 10.0 mi East 11.5 mph - N/A   Clear
2:55 AM 33.8 °F 24.8 °F 14.0 °F 44% 30.37 in 10.0 mi East 12.7 mph 19.6 mph N/A   Clear
3:15 AM 33.8 °F 25.8 °F 12.2 °F 41% 30.37 in 10.0 mi East 10.4 mph 16.1 mph N/A   Clear
3:35 AM 33.8 °F 27.0 °F 12.2 °F 41% 30.38 in 10.0 mi East 8.1 mph - N/A   Clear
3:55 AM 33.8 °F 25.8 °F 12.2 °F 41% 30.38 in 10.0 mi East 10.4 mph - N/A   Clear
4:15 AM 33.8 °F 26.4 °F 12.2 °F 41% 30.39 in 10.0 mi East 9.2 mph - N/A   Clear
4:35 AM 32.0 °F 25.6 °F 12.2 °F 44% 30.39 in 10.0 mi ENE 6.9 mph - N/A   Clear
4:55 AM 30.2 °F 21.3 °F 14.0 °F 51% 30.38 in 10.0 mi ENE 10.4 mph - N/A   Clear
5:15 AM 30.2 °F 20.8 °F 12.2 °F 47% 30.38 in 10.0 mi East 11.5 mph 17.3 mph N/A   Clear
5:35 AM 30.2 °F 20.8 °F 12.2 °F 47% 30.37 in 10.0 mi ENE 11.5 mph - N/A   Clear
5:55 AM 30.2 °F 20.8 °F 12.2 °F 47% 30.38 in 10.0 mi East 11.5 mph 16.1 mph N/A   Clear
6:15 AM 30.2 °F 19.3 °F 10.4 °F 44% 30.37 in 10.0 mi ENE 15.0 mph 19.6 mph N/A   Clear
6:35 AM 32.0 °F 22.1 °F 10.4 °F 41% 30.37 in 10.0 mi East 13.8 mph 18.4 mph N/A   Clear
6:55 AM 32.0 °F 22.5 °F 10.4 °F 41% 30.38 in 10.0 mi East 12.7 mph 20.7 mph N/A   Clear
7:15 AM 33.8 °F 23.9 °F 8.6 °F 35% 30.38 in 10.0 mi ENE 15.0 mph 21.9 mph N/A   Clear
7:35 AM 33.8 °F 23.9 °F 8.6 °F 35% 30.37 in 10.0 mi East 15.0 mph 21.9 mph N/A   Clear
7:55 AM 35.6 °F 27.1 °F 8.6 °F 33% 30.38 in 10.0 mi East 12.7 mph 21.9 mph N/A   Clear
8:15 AM 37.4 °F 28.5 °F 8.6 °F 30% 30.38 in 10.0 mi East 15.0 mph 20.7 mph N/A   Clear
8:35 AM 37.4 °F 28.5 °F 10.4 °F 33% 30.39 in 10.0 mi East 15.0 mph 19.6 mph N/A   Clear
8:55 AM 37.4 °F 28.9 °F 10.4 °F 33% 30.39 in 10.0 mi East 13.8 mph 17.3 mph N/A   Partly Cloudy
9:15 AM 39.2 °F 32.5 °F 12.2 °F 33% 30.39 in 10.0 mi ENE 10.4 mph - N/A   Scattered Clouds
9:35 AM 39.2 °F 31.6 °F 14.0 °F 36% 30.38 in 10.0 mi East 12.7 mph - N/A   Overcast
9:55 AM 39.2 °F 30.5 °F 15.8 °F 39% 30.37 in 10.0 mi East 16.1 mph - N/A   Overcast
10:15 AM 39.2 °F 33.0 °F 15.8 °F 39% 30.37 in 10.0 mi East 9.2 mph - N/A   Overcast
10:35 AM 42.8 °F 38.0 °F 17.6 °F 36% 30.36 in 10.0 mi ESE 8.1 mph - N/A   Overcast
10:55 AM 42.8 °F 36.2 °F 19.4 °F 39% 30.34 in 10.0 mi East 12.7 mph 16.1 mph N/A   Overcast
11:15 AM 44.6 °F 39.7 °F 19.4 °F 37% 30.34 in 10.0 mi East 9.2 mph - N/A   Scattered Clouds
11:35 AM 44.6 °F 39.2 °F 21.2 °F 39% 30.32 in 10.0 mi East 10.4 mph - N/A   Mostly Cloudy
11:55 AM 44.6 °F 39.2 °F 23.0 °F 43% 30.30 in 10.0 mi East 10.4 mph - N/A   Mostly Cloudy
12:15 PM 44.6 °F 40.2 °F 23.0 °F 43% 30.29 in 10.0 mi ESE 8.1 mph - N/A   Mostly Cloudy
12:35 PM 46.4 °F 41.5 °F 24.8 °F 43% 30.27 in 10.0 mi East 10.4 mph 17.3 mph N/A   Overcast
12:55 PM 46.4 °F 41.9 °F 26.6 °F 46% 30.27 in 10.0 mi East 9.2 mph - N/A   Overcast
1:15 PM 48.2 °F - 26.6 °F 43% 30.26 in 10.0 mi ESE 6.9 mph - N/A   Overcast
1:35 PM 48.2 °F - 26.6 °F 43% 30.26 in 10.0 mi East 12.7 mph - N/A   Overcast
1:55 PM 48.2 °F - 28.4 °F 46% 30.25 in 10.0 mi East 12.7 mph - N/A   Overcast
2:15 PM 48.2 °F - 26.6 °F 43% 30.25 in 10.0 mi East 9.2 mph - N/A   Overcast
2:35 PM 48.2 °F - 26.6 °F 43% 30.23 in 10.0 mi ESE 9.2 mph - N/A   Mostly Cloudy
2:55 PM 48.2 °F - 28.4 °F 46% 30.24 in 10.0 mi East 11.5 mph - N/A   Overcast
3:15 PM 48.2 °F - 28.4 °F 46% 30.24 in 10.0 mi East 10.4 mph - N/A   Overcast
3:35 PM 48.2 °F - 28.4 °F 46% 30.23 in 10.0 mi East 10.4 mph 16.1 mph N/A   Overcast
3:55 PM 48.2 °F - 28.4 °F 46% 30.22 in 10.0 mi East 11.5 mph - N/A   Overcast
4:15 PM 48.2 °F - 26.6 °F 43% 30.22 in 10.0 mi East 10.4 mph - N/A   Overcast
4:35 PM 48.2 °F - 28.4 °F 46% 30.21 in 10.0 mi East 8.1 mph - N/A   Overcast
4:55 PM 48.2 °F - 28.4 °F 46% 30.21 in 10.0 mi East 10.4 mph 16.1 mph N/A   Overcast
5:15 PM 48.2 °F - 28.4 °F 46% 30.21 in 10.0 mi East 10.4 mph - N/A   Overcast
5:35 PM 48.2 °F - 28.4 °F 46% 30.21 in 10.0 mi East 10.4 mph - N/A   Overcast
5:55 PM 48.2 °F - 28.4 °F 46% 30.21 in 10.0 mi East 12.7 mph - N/A   Overcast
6:15 PM 48.2 °F - 28.4 °F 46% 30.19 in 10.0 mi East 15.0 mph - N/A   Overcast
6:35 PM 48.2 °F - 28.4 °F 46% 30.19 in 10.0 mi East 12.7 mph 18.4 mph N/A   Overcast
6:55 PM 48.2 °F - 28.4 °F 46% 30.19 in 10.0 mi East 11.5 mph 17.3 mph N/A   Overcast
7:15 PM 48.2 °F - 28.4 °F 46% 30.17 in 10.0 mi East 12.7 mph 19.6 mph N/A   Overcast
7:35 PM 48.2 °F - 28.4 °F 46% 30.17 in 10.0 mi East 11.5 mph 18.4 mph N/A   Overcast
7:55 PM 48.2 °F - 30.2 °F 50% 30.18 in 10.0 mi East 12.7 mph 17.3 mph N/A   Overcast
8:15 PM 48.2 °F - 30.2 °F 50% 30.18 in 10.0 mi East 11.5 mph 18.4 mph N/A   Overcast
8:35 PM 48.2 °F - 30.2 °F 50% 30.17 in 10.0 mi East 11.5 mph 20.7 mph N/A   Overcast
8:55 PM 48.2 °F - 32.0 °F 54% 30.15 in 10.0 mi East 13.8 mph - N/A   Overcast
9:15 PM 48.2 °F - 32.0 °F 54% 30.14 in 10.0 mi East 16.1 mph 20.7 mph N/A   Overcast
9:35 PM 48.2 °F - 33.8 °F 58% 30.13 in 10.0 mi East 15.0 mph 19.6 mph N/A   Overcast
9:55 PM 46.4 °F 40.1 °F 33.8 °F 62% 30.12 in 10.0 mi East 15.0 mph 21.9 mph N/A   Overcast
10:15 PM 46.4 °F 40.7 °F 33.8 °F 62% 30.12 in 10.0 mi East 12.7 mph 21.9 mph N/A   Overcast
10:35 PM 46.4 °F 40.7 °F 33.8 °F 62% 30.10 in 10.0 mi East 12.7 mph 24.2 mph N/A   Overcast
10:55 PM 46.4 °F 40.1 °F 35.6 °F 66% 30.09 in 10.0 mi East 15.0 mph 19.6 mph N/A   Overcast
11:15 PM 46.4 °F 40.1 °F 35.6 °F 66% 30.09 in 10.0 mi East 15.0 mph 21.9 mph N/A   Overcast
11:35 PM 44.6 °F 38.4 °F 37.4 °F 76% 30.08 in 10.0 mi East 12.7 mph - N/A   Overcast
11:55 PM 44.6 °F 38.8 °F 37.4 °F 76% 30.07 in 10.0 mi East 11.5 mph - N/A   Overcast